FENGYUN 1C DEB, 29968

Orbit data source: Space-Track

FENGYUN 1C DEB, 29968 is space debris in SSO originally from a launch on Mon, 10 May 1999 UTC launched from the Taiyaun Space Center, China (TSC). Fengyun 1C debris stems from the Chinese weather satellite Fengyun-1C, which was intentionally destroyed by a Chinese anti-satellite missile in 2007. This event dramatically increased the amount of space debris, with thousands of trackable fragments posing hazards to satellites and human spaceflight. The Fengyun 1C debris cloud has become a focal point in discussions about space sustainability and the need for international regulations to prevent the creation of new debris.

Loading next visibility...
Identifier
29968, 1999-025KS
Orbit
SSO
Country
Flag of CNCN / PRC
Related business
Manufacturer
Unknown
Mission
Spacecraft
Bus & Motor
Unknown
Mass
Unknown
Launch date (UTC)
1999-05-10 (27 years ago)
Launch vehicle
Unknown
Launch site
Taiyaun Space Center, China (TSC)
Object type
Payload
Rocket body
Debris
Shape & HBR
Unknown shape, 0.2 m
Radar Cross Section
Medium (>0.1 m² and <1 m²)

Expand to show TLE details & history
Last TLE update: 16 hours ago

TLE from 16 hours ago
0 FENGYUN 1C DEB
1 29968U 99025KS  26257.76335287  .00000068  00000-0  64246-4 0  9992
2 29968  98.8271 245.8340 0088955 298.1580 238.9709 14.07416511  9282
Epoch: 2026-09-14T18:19Z
TLE epoch observation values (Epoch: 2026-09-14T18:19:13.687Z)
Latitude
3.60203°
Longitude
157.84517°
Altitude
904.376 km
Speed
7.383 km/s
True Right ascension
04h 25m 33s
True Declination
3° 34' 51"
Sunlit
Object was in daylight at epoch
Visualization orbit readout
Latitude
Unknown
Longitude
Unknown
Altitude
Unknown
Speed
Unknown
Apparent Right ascension
Unknown
Apparent Declination
Unknown
Sunlit
N/A
Visualization observer readout
Local Sidereal Time
02:57:54
Azimuth
Unknown
Elevation
Unknown
Doppler factor
Unknown
Orbital elements
Apogee altitude
929.842 km
Perigee altitude
800.972 km
Semi-major axis
7,243.544 km
Eccentricity
0.0089
Inclination
98.8271°
RAAN
245.834°
Arg. of periapsis
298.158°
True anomaly
238.10243°
Mean anomaly
238.9709°
Eccentric anomaly
238.53616°
Mean motion
3.5206 °/min
Orbital period
102.26 mins
BSTAR
0.000064246
Loading maneuver chart data...
Computing Atmospheric mass density...
Loading historical data...
Loading historical data...
Loading historical data...
Loading historical data...
Loading historical data...
Loading historical data...
Loading historical data...

Documentation

Showing up to 5 results
|